Weather History for Lewisburg, WV

Change the Weather History Date:

Friday, May 2, 2014

  Actual Average Record
Temperature  
Mean Temperature 50 °F 55 °F  
Max Temperature 62 °F 68 °F 86 °F (2012)
Min Temperature 38 °F 42 °F 28 °F (2005)
Degree Days  
Heating Degree Days 15    
Month to date heating degree days 23  
Cooling Degree Days 0    
Month to date cooling degree days 0  
Year to date cooling degree days 0  
Moisture  
Dew Point 31 °F    
Average Humidity 55    
Maximum Humidity 79    
Minimum Humidity 30    
Precipitation  
Precipitation 0.00 in 0.14 in 0.90 in (1971)
Month to date precipitation 0.00 0.27  
Year to date precipitation 7.86 13.14  
Snow  
Snow 0.00 in - - ()
Month to date snowfall 0.0  
Snow Depth 0.00 in    
Sea Level Pressure  
Sea Level Pressure 29.90 in    
Wind  
Wind Speed 5 mph (West)    
Max Wind Speed 13 mph    
Max Gust Speed 21 mph    
Visibility 10 miles    
Events      
T = Trace of Precipitation, MM = Missing Value Source: NWS Daily Summary

Daily Weather History Graph

Daily Weather History Graph

Search for Another Location

Airport:

Trip Planner

Search our weather history database for the weather conditions in past years. The results will help you decide how hot, cold, wet, or windy it might be!

Date:

Astronomy

May. 02, 2014 Rise Set
Actual Time 6:24 AM EDT 8:13 PM EDT
Civil Twilight 5:56 AM EDT 8:41 PM EDT
Nautical Twilight 5:21 AM EDT 9:16 PM EDT
Astronomical Twilight 4:45 AM EDT 9:52 PM EDT
Moon 9:01 AM EDT (5/2) 11:33 PM EDT (5/2)
Length of Visible Light 14h 45m
Length of Day
13h 48m
Waxing Crescent, 12% of the Moon is Illuminated
May 2
Waxing Crescent
May 6
First Quarter
May 14
Full
May 21
Last Quarter
May 28
New

Hourly Weather History & Observations

Time (EDT) Temp. Windchill Dew Point Humidity Pressure Visibility Wind Dir Wind Speed Gust Speed Precip Events Conditions
12:15 AM 50.2 °F - 31.6 °F 49% 29.91 in 10.0 mi Calm Calm - N/A   Mostly Cloudy
12:35 AM 49.5 °F - 31.6 °F 50% 29.91 in 10.0 mi West 3.5 mph - N/A   Mostly Cloudy
12:55 AM 49.1 °F - 31.8 °F 51% 29.91 in 10.0 mi Calm Calm - N/A   Mostly Cloudy
1:15 AM 49.1 °F - 32.0 °F 52% 29.91 in 10.0 mi Calm Calm - N/A   Scattered Clouds
1:35 AM 47.5 °F - 32.0 °F 55% 29.91 in 10.0 mi Calm Calm - N/A   Clear
1:55 AM 47.8 °F - 32.0 °F 54% 29.90 in 10.0 mi Calm Calm - N/A   Clear
2:15 AM 47.7 °F - 32.0 °F 55% 29.90 in 10.0 mi Calm Calm - N/A   Clear
2:35 AM 43.0 °F - 32.5 °F 67% 29.89 in 10.0 mi Calm Calm - N/A   Clear
2:55 AM 41.9 °F - 32.7 °F 70% 29.89 in 10.0 mi Calm Calm - N/A   Clear
3:15 AM 42.8 °F - 32.9 °F 68% 29.90 in 10.0 mi Calm Calm - N/A   Clear
3:35 AM 45.3 °F - 32.2 °F 60% 29.90 in 10.0 mi Calm Calm - N/A   Clear
3:55 AM 43.0 °F - 32.4 °F 66% 29.90 in 10.0 mi Calm Calm - N/A   Clear
4:15 AM 42.3 °F - 32.0 °F 67% 29.90 in 10.0 mi Calm Calm - N/A   Clear
4:35 AM 41.9 °F - 32.4 °F 69% 29.89 in 10.0 mi Calm Calm - N/A   Clear
4:55 AM 42.6 °F - 32.5 °F 68% 29.89 in 10.0 mi Calm Calm - N/A   Clear
5:15 AM 40.8 °F - 32.0 °F 71% 29.89 in 10.0 mi Calm Calm - N/A   Scattered Clouds
5:35 AM 41.0 °F - 32.5 °F 72% 29.89 in 10.0 mi Calm Calm - N/A   Clear
5:55 AM 40.1 °F - 32.4 °F 74% 29.89 in 10.0 mi Calm Calm - N/A   Clear
6:15 AM 39.9 °F - 32.4 °F 74% 29.90 in 10.0 mi Calm Calm - N/A   Clear
6:35 AM 39.7 °F - 32.0 °F 74% 29.91 in 10.0 mi Calm Calm - N/A   Clear
6:55 AM 38.1 °F 35.7 °F 32.0 °F 79% 29.91 in 10.0 mi South 3.5 mph - N/A   Clear
7:15 AM 39.4 °F 37.2 °F 33.1 °F 78% 29.92 in 10.0 mi SW 3.5 mph - N/A   Clear
7:35 AM 41.7 °F 38.8 °F 34.5 °F 76% 29.93 in 10.0 mi SW 4.6 mph - N/A   Clear
7:55 AM 45.7 °F 43.4 °F 34.7 °F 65% 29.93 in 10.0 mi SW 4.6 mph - N/A   Scattered Clouds
8:15 AM 46.9 °F - 32.7 °F 58% 29.93 in 10.0 mi WSW 8.1 mph - N/A   Scattered Clouds
8:35 AM 48.2 °F - 32.9 °F 55% 29.93 in 10.0 mi WSW 8.1 mph - N/A   Clear
8:55 AM 48.7 °F - 32.5 °F 54% 29.94 in 10.0 mi WSW 8.1 mph - N/A   Scattered Clouds
9:15 AM 49.5 °F - 33.1 °F 53% 29.92 in 10.0 mi WSW 8.1 mph - N/A   Scattered Clouds
9:35 AM 49.6 °F - 32.9 °F 53% 29.93 in 10.0 mi West 8.1 mph - N/A   Mostly Cloudy
9:55 AM 50.5 °F - 31.1 °F 47% 29.92 in 10.0 mi West 9.2 mph 19.6 mph N/A   Mostly Cloudy
10:15 AM 51.4 °F - 30.0 °F 44% 29.93 in 10.0 mi West 11.5 mph 18.4 mph N/A   Scattered Clouds
10:35 AM 51.8 °F - 29.3 °F 42% 29.93 in 10.0 mi WNW 8.1 mph 20.7 mph N/A   Mostly Cloudy
10:55 AM 53.6 °F - 29.3 °F 39% 29.93 in 10.0 mi West 12.7 mph 18.4 mph N/A   Mostly Cloudy
11:15 AM 54.0 °F - 28.6 °F 38% 29.92 in 10.0 mi WSW 10.4 mph 19.6 mph N/A   Scattered Clouds
11:35 AM 55.2 °F - 28.4 °F 36% 29.92 in 10.0 mi West 10.4 mph 18.4 mph N/A   Scattered Clouds
11:55 AM 55.2 °F - 27.7 °F 35% 29.91 in 10.0 mi WSW 11.5 mph 18.4 mph N/A   Scattered Clouds
12:15 PM 55.4 °F - 27.5 °F 34% 29.91 in 10.0 mi WNW 9.2 mph 17.3 mph N/A   Scattered Clouds
12:35 PM 55.6 °F - 27.7 °F 34% 29.90 in 10.0 mi Calm Calm - N/A   Scattered Clouds
12:55 PM 57.0 °F - 27.7 °F 33% 29.89 in 10.0 mi WNW 9.2 mph 18.4 mph N/A   Clear
1:15 PM 57.0 °F - 27.3 °F 32% 29.89 in 10.0 mi WSW 12.7 mph 16.1 mph N/A   Clear
1:35 PM 57.7 °F - 28.6 °F 33% 29.89 in 10.0 mi West 10.4 mph - N/A   Scattered Clouds
1:55 PM 58.1 °F - 27.1 °F 31% 29.88 in 10.0 mi West 5.8 mph - N/A   Scattered Clouds
2:15 PM 59.0 °F - 29.3 °F 32% 29.88 in 10.0 mi WNW 8.1 mph 17.3 mph N/A   Mostly Cloudy
2:35 PM 60.4 °F - 29.7 °F 31% 29.88 in 10.0 mi WNW 8.1 mph 19.6 mph N/A   Mostly Cloudy
2:55 PM 59.5 °F - 28.8 °F 31% 29.88 in 10.0 mi West 10.4 mph 16.1 mph N/A   Scattered Clouds
3:15 PM 60.6 °F - 28.6 °F 30% 29.87 in 10.0 mi NW 6.9 mph - N/A   Scattered Clouds
3:35 PM 61.0 °F - 29.7 °F 31% 29.87 in 10.0 mi WNW 8.1 mph - N/A   Clear
3:55 PM 61.5 °F - 29.1 °F 29% 29.87 in 10.0 mi WSW 9.2 mph 17.3 mph N/A   Scattered Clouds
4:15 PM 59.5 °F - 29.5 °F 32% 29.87 in 10.0 mi West 6.9 mph - N/A   Scattered Clouds
4:35 PM 61.3 °F - 28.9 °F 29% 29.87 in 10.0 mi NW 9.2 mph - N/A   Scattered Clouds
4:55 PM 61.2 °F - 30.6 °F 32% 29.87 in 10.0 mi West 11.5 mph 17.3 mph N/A   Scattered Clouds
5:15 PM 61.5 °F - 29.8 °F 30% 29.87 in 10.0 mi NW 8.1 mph - N/A   Scattered Clouds
5:55 PM 60.3 °F - 29.8 °F 32% 29.88 in 10.0 mi WNW 6.9 mph - N/A   Mostly Cloudy
6:15 PM 60.6 °F - 29.8 °F 31% 29.88 in 10.0 mi NW 9.2 mph - N/A   Scattered Clouds
6:35 PM 59.2 °F - 29.7 °F 33% 29.88 in 10.0 mi NW 8.1 mph - N/A   Clear
6:55 PM 59.2 °F - 29.7 °F 33% 29.89 in 10.0 mi NW 6.9 mph - N/A   Clear
7:15 PM 58.8 °F - 29.8 °F 33% 29.89 in 10.0 mi WNW 4.6 mph - N/A   Clear
7:35 PM 57.9 °F - 30.4 °F 35% 29.89 in 10.0 mi NW 6.9 mph - N/A   Clear
7:55 PM 56.3 °F - 30.9 °F 38% 29.89 in 10.0 mi NW 3.5 mph - N/A   Clear
8:15 PM 55.0 °F - 31.8 °F 41% 29.89 in 10.0 mi Calm Calm - N/A   Clear
8:35 PM 51.6 °F - 32.4 °F 48% 29.89 in 10.0 mi Calm Calm - N/A   Clear
8:55 PM 52.5 °F - 32.0 °F 46% 29.89 in 10.0 mi Calm Calm - N/A   Clear
9:15 PM 49.8 °F - 32.4 °F 51% 29.89 in 10.0 mi Calm Calm - N/A   Clear
9:35 PM 50.2 °F - 32.5 °F 51% 29.89 in 10.0 mi Calm Calm - N/A   Clear
9:55 PM 51.3 °F - 32.2 °F 48% 29.89 in 10.0 mi Calm Calm - N/A   Clear
10:15 PM 49.1 °F - 32.5 °F 53% 29.90 in 10.0 mi Calm Calm - N/A   Scattered Clouds
10:35 PM 48.2 °F - 33.1 °F 56% 29.90 in 10.0 mi Calm Calm - N/A   Scattered Clouds
10:55 PM 47.3 °F - 32.9 °F 57% 29.89 in 10.0 mi Calm Calm - N/A   Clear
11:15 PM 46.4 °F - 33.6 °F 61% 29.90 in 10.0 mi Calm Calm - N/A   Clear
11:35 PM 45.7 °F - 33.6 °F 63% 29.90 in 10.0 mi Calm Calm - N/A   Clear
11:55 PM 42.6 °F - 34.2 °F 72% 29.90 in 10.0 mi Calm Calm - N/A   Clear